Date String (YYYY-MM-DD hh:mm:ss) UTC,Instrument flags,Ambient pressure (hPa),Sample flow (lpm),Bypass flow (lpm),Sample temperature (°C),Ambient temperature (°C),ASC tube jacket temperature (°C),LED temperature (°C),Box temperature (°C),Sample RH (%),Span deviation,Mass concentration (μg/m³),Mass concentration (μg/m³),Mass concentration (μg/m³)
DateTimeUTC,F1_M11,P_M11,Q1_M11,Q2_M11,T1_M11,T2_M11,T3_M11,T4_M11,T5_M11,U1_M11,ZSPAN_M11,X2_M11,X0_M11,X1_M11
2021-10-22 19:00:00,,0825.9,5.00,0.00,30.3,26.3,00.0,39.4,31.6,09.7,0000.0,0005.06,0018.59,0003.46
2021-10-22 19:01:00,,0825.9,4.99,0.00,30.2,26.7,00.0,39.4,31.6,10.0,0000.0,0004.97,0018.91,0003.45
2021-10-22 19:02:00,,0826.1,4.99,0.00,30.1,27.2,00.0,39.3,31.6,10.0,0000.0,0004.91,0018.15,0003.44
2021-10-22 19:03:00,,0826.0,4.99,0.00,30.1,27.6,00.0,39.3,31.6,09.8,0000.0,0004.92,0017.44,0003.42
2021-10-22 19:04:00,,0825.9,5.02,0.00,30.1,28.0,00.0,39.2,31.7,09.4,0000.0,0004.85,0016.71,0003.38
2021-10-22 19:05:00,,0825.7,5.00,0.00,30.1,28.3,00.0,39.2,31.7,09.0,0000.0,0004.69,0016.21,0003.32
2021-10-22 19:06:00,,0825.7,5.00,0.00,30.1,28.5,00.0,39.2,31.8,09.0,0000.0,0004.55,0016.32,0003.25
2021-10-22 19:07:00,,0825.7,5.00,0.00,30.1,28.7,00.0,39.2,31.8,08.8,0000.0,0004.33,0015.34,0003.14
2021-10-22 19:08:00,,0825.7,4.99,0.00,30.1,28.8,00.0,39.2,31.8,08.8,0000.0,0004.21,0015.52,0003.01
2021-10-22 19:09:00,,0825.6,5.02,0.00,30.1,29.0,00.0,39.2,31.9,08.6,0000.0,0004.02,0015.00,0002.81
2021-10-22 19:10:00,,0825.6,5.00,0.00,30.2,29.1,00.0,39.2,31.9,08.7,0000.0,0003.87,0014.84,0002.65
2021-10-22 19:11:00,,0825.7,5.00,0.00,30.2,29.2,00.0,39.2,32.0,08.6,0000.0,0003.74,0014.57,0002.49
2021-10-22 19:12:00,,0825.6,4.99,0.00,30.2,29.3,00.0,39.2,32.0,08.5,0000.0,0003.65,0013.48,0002.35
2021-10-22 19:13:00,,0825.6,5.00,0.00,30.2,29.3,00.0,39.2,32.0,08.5,0000.0,0003.54,0013.53,0002.23
2021-10-22 19:14:00,,0825.6,5.00,0.00,30.3,29.4,00.0,39.2,32.1,08.8,0000.0,0003.42,0013.73,0002.14
2021-10-22 19:15:00,,0825.6,5.00,0.00,30.3,29.5,00.0,39.3,32.1,08.7,0000.0,0003.37,0014.19,0002.08
2021-10-22 19:16:00,,0825.5,5.01,0.00,30.3,29.5,00.0,39.3,32.1,08.2,0000.0,0003.32,0014.83,0002.00
2021-10-22 19:17:00,,0825.5,5.00,0.00,30.4,29.6,00.0,39.3,32.2,08.4,0000.0,0003.24,0013.87,0001.93
2021-10-22 19:18:00,,0825.5,5.00,0.00,30.4,29.6,00.0,39.3,32.2,08.1,0000.0,0003.22,0014.11,0001.88
2021-10-22 19:19:00,,0825.4,5.00,0.00,30.4,28.8,00.0,39.3,32.1,08.1,0000.0,0003.19,0014.22,0001.85
2021-10-22 19:20:00,,0825.5,5.01,0.00,30.3,26.7,00.0,39.3,31.7,08.2,0000.0,0003.19,0014.08,0001.84
2021-10-22 19:21:00,,0825.4,4.98,0.00,30.2,26.1,00.0,39.3,31.5,08.2,0000.0,0003.14,0015.24,0001.81
2021-10-22 19:22:00,,0825.4,5.01,0.00,30.1,26.5,00.0,39.3,31.5,08.2,0000.0,0003.12,0015.57,0001.79
2021-10-22 19:23:00,,0825.4,4.99,0.00,30.0,26.9,00.0,39.2,31.5,08.2,0000.0,0003.10,0016.27,0001.78
2021-10-22 19:24:00,,0825.3,5.01,0.00,30.0,27.4,00.0,39.2,31.5,08.2,0000.0,0003.09,0015.32,0001.76
2021-10-22 19:25:00,,0825.3,5.01,0.00,29.9,27.7,00.0,39.1,31.5,08.2,0000.0,0003.02,0014.32,0001.72
2021-10-22 19:26:00,,0825.3,4.99,0.00,29.9,28.1,00.0,39.1,31.6,08.3,0000.0,0002.88,0013.37,0001.71
2021-10-22 19:27:00,,0825.3,5.01,0.00,30.0,28.3,00.0,39.1,31.7,08.1,0000.0,0002.87,0012.67,0001.72
2021-10-22 19:28:00,,0825.3,4.99,0.00,30.0,28.5,00.0,39.1,31.7,08.1,0000.0,0002.92,0012.96,0001.74
2021-10-22 19:29:00,,0825.3,5.01,0.00,30.0,28.6,00.0,39.1,31.7,08.1,0000.0,0002.98,0012.94,0001.75
2021-10-22 19:30:00,,0825.3,5.00,0.00,30.0,28.8,00.0,39.1,31.8,08.1,0000.0,0003.02,0013.07,0001.76
2021-10-22 19:31:00,,0825.2,5.00,0.00,30.0,28.9,00.0,39.1,31.8,08.1,0000.0,0002.98,0013.08,0001.77
2021-10-22 19:32:00,,0825.2,5.00,0.00,30.1,29.0,00.0,39.1,31.9,08.1,0000.0,0002.99,0011.62,0001.79
2021-10-22 19:33:00,,0825.2,5.01,0.00,30.1,29.1,00.0,39.1,31.9,08.1,0000.0,0002.99,0011.55,0001.80
2021-10-22 19:34:00,,0825.1,5.00,0.00,30.1,29.2,00.0,39.1,31.9,08.1,0000.0,0002.98,0010.76,0001.80
2021-10-22 19:35:00,,0825.1,5.00,0.00,30.2,29.3,00.0,39.1,32.0,08.1,0000.0,0002.99,0011.44,0001.81
2021-10-22 19:36:00,,0825.0,5.00,0.00,30.2,29.3,00.0,39.1,32.0,08.1,0000.0,0003.06,0012.10,0001.83
2021-10-22 19:37:00,,0825.0,5.00,0.00,30.2,29.3,00.0,39.2,32.0,08.1,0000.0,0003.14,0012.42,0001.85
2021-10-22 19:38:00,,0825.0,5.01,0.00,30.2,29.4,00.0,39.2,32.1,08.1,0000.0,0003.18,0012.91,0001.87
2021-10-22 19:39:00,,0824.9,5.02,0.00,30.3,29.4,00.0,39.2,32.1,08.1,0000.0,0003.18,0012.22,0001.86
2021-10-22 19:40:00,,0824.9,5.00,0.00,30.3,29.4,00.0,39.2,32.1,08.2,0000.0,0003.22,0012.12,0001.89
2021-10-22 19:41:00,,0824.9,5.00,0.00,30.3,29.4,00.0,39.3,32.1,08.2,0000.0,0003.23,0011.84,0001.92
2021-10-22 19:42:00,,0824.9,5.00,0.00,30.4,29.5,00.0,39.3,32.2,08.1,0000.0,0003.33,0011.73,0001.96
2021-10-22 19:43:00,,0824.9,5.00,0.00,30.4,29.5,00.0,39.3,32.2,08.1,0000.0,0003.40,0012.18,0002.00
2021-10-22 19:44:00,,0824.9,5.00,0.00,30.4,29.5,00.0,39.3,32.2,08.0,0000.0,0003.43,0012.40,0002.03
2021-10-22 19:45:00,,0824.9,5.01,0.00,30.4,27.8,00.0,39.3,31.9,08.0,0000.0,0003.46,0012.44,0002.04
2021-10-22 19:46:00,,0824.9,5.00,0.00,30.2,26.0,00.0,39.3,31.5,08.1,0000.0,0003.50,0012.13,0002.04
2021-10-22 19:47:00,,0824.9,5.00,0.00,30.1,26.1,00.0,39.2,31.4,08.3,0000.0,0003.48,0011.41,0002.05
2021-10-22 19:48:00,,0824.8,5.01,0.00,30.0,26.5,00.0,39.2,31.4,08.3,0000.0,0003.45,0011.68,0002.05
2021-10-22 19:49:00,,0824.8,4.98,0.00,29.9,27.0,00.0,39.1,31.4,08.4,0000.0,0003.45,0011.92,0002.05
2021-10-22 19:50:00,,0824.8,5.00,0.00,29.9,27.5,00.0,39.1,31.5,08.4,0000.0,0003.48,0012.20,0002.06
2021-10-22 19:51:00,,0824.8,5.01,0.00,29.9,27.9,00.0,39.1,31.5,08.4,0000.0,0003.48,0012.69,0002.08
2021-10-22 19:52:00,,0824.8,5.01,0.00,29.9,28.2,00.0,39.0,31.6,08.3,0000.0,0003.46,0012.80,0002.07
2021-10-22 19:53:00,,0824.7,5.00,0.00,29.9,28.4,00.0,39.0,31.7,08.3,0000.0,0003.41,0012.66,0002.04
2021-10-22 19:54:00,,0824.7,4.99,0.00,29.9,28.6,00.0,39.0,31.7,08.3,0000.0,0003.40,0012.52,0002.03
2021-10-22 19:55:00,,0824.6,5.01,0.00,30.0,28.8,00.0,39.0,31.8,08.2,0000.0,0003.40,0012.34,0002.04
2021-10-22 19:56:00,,0824.6,4.98,0.00,30.0,28.9,00.0,39.0,31.8,08.3,0000.0,0003.37,0012.02,0002.05
2021-10-22 19:57:00,,0824.5,5.01,0.00,30.0,29.0,00.0,39.0,31.9,08.2,0000.0,0003.35,0012.30,0002.06
2021-10-22 19:58:00,,0824.6,5.00,0.00,30.1,29.1,00.0,39.1,31.9,08.2,0000.0,0003.36,0012.21,0002.07
2021-10-22 19:59:00,,0824.6,5.00,0.00,30.1,29.2,00.0,39.1,31.9,08.2,0000.0,0003.38,0011.69,0002.07
